Knoxville, TN

1:50 PM EST on November 22, 2019 (GMT -0500)
McGhee Tyson

Weather History for KTYS - July, 2019

Change the Weather History Date:

Sunday, July 21, 2019

  Actual Average Record
Temperature  
Mean Temperature 82 °F 79 °F  
Max Temperature 90 °F 88 °F 98 °F (1926)
Min Temperature 73 °F 69 °F 59 °F (1903)
Degree Days  
Heating Degree Days 0 0  
Month to date heating degree days 0 0  
Since 1 June heating degree days 0 4  
Since 1 July heating degree days 0 0  
Cooling Degree Days 17 14  
Month to date cooling degree days 336 284  
Year to date cooling degree days 915 751  
Since 1 June cooling degree days 615 589  
Growing Degree Days 32 (Base 50)    
Moisture  
Dew Point 71 °F    
Average Humidity 73    
Maximum Humidity 93    
Minimum Humidity 52    
Precipitation  
Precipitation 0.00 in 0.17 in 1.44 in (1893)
Month to date precipitation 1.65 3.54  
Year to date precipitation 40.87 28.79  
Snow  
Snow 0.00 in 0.00 in - ()
Month to date snowfall 0.0 0.0  
Since 1 June snowfall 0.0 0.0  
Since 1 July snowfall 0.0 0.0  
Snow Depth 0.00 in    
Sea Level Pressure  
Sea Level Pressure 29.99 in    
Wind  
Wind Speed 8 mph (SW)    
Max Wind Speed 17 mph    
Max Gust Speed 22 mph    
Visibility 10 miles    
Events      
T = Trace of Precipitation, MM = Missing Value Source: NWS Daily Summary

Daily Weather History Graph

Daily Weather History Graph

Search for Another Location

Airport or City:

Astronomy

Jul. 21, 2019 Rise Set
Actual Time 6:35 AM EDT 8:49 PM EDT
Civil Twilight 6:06 AM EDT 9:18 PM EDT
Nautical Twilight 5:30 AM EDT 9:53 PM EDT
Astronomical Twilight 4:52 AM EDT 10:31 PM EDT
Moon 11:51 PM EDT (7/21) 10:47 AM EDT (7/21)
Length of Visible Light 15h 11m
Length of Day
14h 13m
Waning Gibbous, 80% of the Moon is Illuminated
Jul 21
Waning Gibbous
Jul 24
Last Quarter
Jul 31
New
Aug 7
First Quarter
Aug 15
Full

Hourly Weather History & Observations

Time (EDT) Temp. Heat Index Dew Point Humidity Pressure Visibility Wind Dir Wind Speed Gust Speed Precip Events Conditions
12:53 AM 75.9 °F - 72.0 °F 87% 29.97 in 10.0 mi Calm Calm - N/A   Scattered Clouds
1:53 AM 75.0 °F - 72.0 °F 90% 29.96 in 10.0 mi North 4.6 mph - N/A   Scattered Clouds
2:45 AM 75.0 °F - 72.0 °F 90% 30.01 in 10.0 mi Calm Calm - N/A   Mostly Cloudy
2:53 AM 73.9 °F - 72.0 °F 93% 29.97 in 10.0 mi ENE 4.6 mph - N/A   Mostly Cloudy
3:53 AM 73.9 °F - 72.0 °F 93% 29.98 in 10.0 mi Calm Calm - N/A   Scattered Clouds
4:09 AM 73.9 °F - 71.1 °F 91% 30.02 in 10.0 mi NE 3.5 mph - N/A   Partly Cloudy
4:53 AM 73.0 °F - 72.0 °F 96% 29.99 in 10.0 mi SSE 5.8 mph - N/A   Scattered Clouds
5:33 AM 73.0 °F - 71.1 °F 93% 30.03 in 10.0 mi WSW 3.5 mph - N/A   Overcast
5:53 AM 73.0 °F - 71.1 °F 93% 30.00 in 10.0 mi SW 5.8 mph - N/A   Overcast
6:53 AM 73.0 °F - 71.1 °F 93% 30.01 in 9.0 mi SW 6.9 mph - N/A   Overcast
7:53 AM 73.9 °F - 72.0 °F 93% 30.02 in 10.0 mi SSW 8.1 mph - N/A   Overcast
8:53 AM 75.9 °F - 71.1 °F 85% 30.03 in 10.0 mi SW 6.9 mph - N/A   Overcast
9:53 AM 77.0 °F - 71.1 °F 82% 30.04 in 10.0 mi WSW 11.5 mph - N/A   Overcast
10:25 AM 79.0 °F - 71.1 °F 77% 30.06 in 10.0 mi SW 12.7 mph - N/A   Overcast
10:53 AM 82.0 °F 86.3 °F 71.1 °F 69% 30.03 in 10.0 mi SW 13.8 mph - N/A   Overcast
11:53 AM 82.0 °F 85.9 °F 70.0 °F 67% 30.03 in 10.0 mi WSW 10.4 mph - N/A   Overcast
12:53 PM 86.0 °F 90.7 °F 70.0 °F 59% 30.02 in 10.0 mi WSW 9.2 mph - N/A   Overcast
1:53 PM 87.1 °F 91.3 °F 69.1 °F 55% 30.00 in 10.0 mi WSW 12.7 mph 19.6 mph N/A   Overcast
2:53 PM 89.1 °F 93.7 °F 69.1 °F 52% 29.98 in 10.0 mi WSW 12.7 mph - N/A   Overcast
3:53 PM 90.0 °F 94.5 °F 69.1 °F 50% 29.96 in 10.0 mi SW 12.7 mph - N/A   Scattered Clouds
4:53 PM 89.1 °F 93.7 °F 69.1 °F 52% 29.95 in 10.0 mi SW 12.7 mph - N/A   Scattered Clouds
5:53 PM 88.0 °F 91.4 °F 68.0 °F 51% 29.95 in 10.0 mi SW 11.5 mph - N/A   Scattered Clouds
6:53 PM 87.1 °F 91.3 °F 69.1 °F 55% 29.93 in 10.0 mi WSW 10.4 mph - N/A   Scattered Clouds
7:53 PM 82.9 °F 87.0 °F 70.0 °F 65% 29.94 in 10.0 mi SW 8.1 mph - N/A   Scattered Clouds
8:53 PM 81.0 °F 84.9 °F 71.1 °F 72% 29.94 in 10.0 mi SSW 5.8 mph - N/A   Scattered Clouds
9:53 PM 81.0 °F 85.2 °F 72.0 °F 74% 29.95 in 10.0 mi WSW 4.6 mph - N/A   Scattered Clouds
10:53 PM 79.0 °F - 71.1 °F 77% 29.96 in 10.0 mi SSW 8.1 mph - N/A   Scattered Clouds
11:53 PM 79.0 °F - 71.1 °F 77% 29.96 in 10.0 mi SSW 6.9 mph - N/A   Scattered Clouds